EW1133 Weather Reports


time (UTC)temp
C
wind
direction
speed
KPH
gust
KPH
rain 1hr
cm
rain 24hr
cm
rain mn
cm
humidity
%
barometer
mb
20260507095351 13 13 0.0 0.0 0.00 0.00 0.00 68 1020.8
20260507094822 13 13 0.0 0.0 0.00 0.00 0.00 69 1020.8
20260507094323 13 13 0.0 0.0 0.00 0.00 0.00 69 1020.8
20260507093815 13 13 0.0 0.0 0.00 0.00 0.00 69 1020.9
20260507093328 13 13 0.0 0.0 0.00 0.00 0.00 70 1021.0
20260507092823 13 13 0.0 0.0 0.00 0.00 0.00 69 1021.0
20260507092316 13 13 0.0 0.0 0.00 0.00 0.00 70 1021.0
20260507091831 13 13 0.0 0.0 0.00 0.00 0.00 70 1021.1
20260507091323 13 13 0.0 0.0 0.00 0.00 0.00 70 1021.2
20260507090818 13 13 0.0 0.0 0.00 0.00 0.00 71 1021.2
20260507090352 13 13 0.0 0.0 0.00 0.00 0.00 71 1021.2
20260507085828 13 13 0.0 0.0 0.00 0.00 0.00 71 1021.2
20260507085324 13 13 0.0 0.0 0.00 0.00 0.00 71 1021.1
20260507084837 13 13 0.0 0.0 0.00 0.00 0.00 71 1021.2
20260507084329 13 13 0.0 0.0 0.00 0.00 0.00 71 1021.1
20260507083821 13 13 0.0 0.0 0.00 0.00 0.00 71 1021.1
20260507083332 13 13 0.0 0.0 0.00 0.00 0.00 71 1021.1
20260507082826 13 13 0.0 0.0 0.00 0.00 0.00 72 1021.1
20260507082318 13 13 0.0 0.0 0.00 0.00 0.00 71 1021.1
20260507081818 13 13 0.0 0.0 0.00 0.00 0.00 72 1021.1
20260507081330 13 13 0.0 0.0 0.00 0.00 0.00 72 1021.1
20260507080825 13 13 0.0 0.0 0.00 0.00 0.00 71 1021.1
20260507080320 13 13 0.0 0.0 0.00 0.00 0.00 71 1021.1
20260507075833 13 13 0.0 1.6 0.00 0.00 0.00 71 1021.1
20260507075324 13 13 0.0 1.6 0.00 0.00 0.00 71 1021.1
20260507074820 13 13 0.0 1.6 0.00 0.00 0.00 71 1021.2
20260507074332 13 13 0.0 0.0 0.00 0.00 0.00 70 1021.1
20260507073824 13 13 0.0 1.6 0.00 0.00 0.00 70 1021.2
20260507073338 13 13 0.0 1.6 0.00 0.00 0.00 70 1021.1
20260507072818 13 13 0.0 0.0 0.00 0.00 0.00 70 1021.1
20260507072333 13 13 0.0 0.0 0.00 0.00 0.00 70 1021.1
20260507071847 13 13 0.0 0.0 0.00 0.00 0.00 70 1021.0
20260507071318 13 13 0.0 0.0 0.00 0.00 0.00 71 1021.0
20260507070831 13 13 0.0 0.0 0.00 0.00 0.00 71 1021.0
20260507070327 13 13 0.0 1.6 0.00 0.00 0.00 70 1020.9
20260507065839 13 13 0.0 1.6 0.00 0.00 0.00 70 1021.0
20260507065330 13 13 0.0 3.2 0.00 0.00 0.00 70 1021.0
20260507064823 13 13 0.0 3.2 0.00 0.00 0.00 70 1021.0
20260507064319 13 13 0.0 1.6 0.00 0.00 0.00 70 1021.0
20260507063852 13 13 0.0 1.6 0.00 0.00 0.00 71 1020.9
20260507063323 13 15 0.0 1.6 0.00 0.00 0.00 71 1021.0
20260507062818 13 15 0.0 0.0 0.00 0.00 0.00 71 1021.0
20260507062351 13 15 0.0 4.8 0.00 0.00 0.00 72 1021.0
20260507061825 13 15 0.0 4.8 0.00 0.00 0.00 71 1021.0
20260507061322 13 39 0.0 3.2 0.00 0.00 0.00 71 1021.0
20260507060833 13 39 0.0 3.2 0.00 0.00 0.00 71 1021.1
20260507060326 13 53 0.0 3.2 0.00 0.00 0.00 71 1021.1
20260507055823 13 18 0.0 1.6 0.00 0.00 0.00 71 1021.0
20260507055316 13 18 0.0 1.6 0.00 0.00 0.00 71 1021.0
20260507054811 13 18 0.0 1.6 0.00 0.00 0.00 72 1020.9
20260507054327 14 18 0.0 0.0 0.00 0.00 0.00 71 1020.9
20260507053820 14 18 0.0 0.0 0.00 0.00 0.00 71 1021.0
20260507053332 14 18 0.0 1.6 0.00 0.00 0.00 71 1021.0
20260507052845 14 18 0.0 1.6 0.00 0.00 0.00 71 1020.9
20260507052316 14 18 0.0 1.6 0.00 0.00 0.00 70 1020.9
20260507051828 14 18 0.0 3.2 0.00 0.00 0.00 71 1020.9
20260507051324 14 18 0.0 3.2 0.00 0.00 0.00 70 1020.9
20260507050817 14 313 0.0 1.6 0.00 0.00 0.00 70 1021.0
20260507050332 14 313 0.0 4.8 0.00 0.00 0.00 70 1020.9
20260507045827 15 295 0.0 4.8 0.00 0.00 0.00 70 1021.0
20260507045320 15 26 0.0 1.6 0.00 0.00 0.00 70 1021.0
20260507044813 15 26 0.0 1.6 0.00 0.00 0.00 69 1021.0
20260507044328 15 26 0.0 1.6 0.00 0.00 0.00 70 1021.0
20260507043822 15 26 0.0 0.0 0.00 0.00 0.00 69 1020.9
20260507043319 15 26 0.0 1.6 0.00 0.00 0.00 69 1020.9
20260507042831 15 26 0.0 1.6 0.00 0.00 0.00 68 1020.8
20260507042343 15 26 0.0 1.6 0.00 0.00 0.00 68 1020.7
20260507041818 15 26 0.0 3.2 0.00 0.00 0.00 68 1020.7
20260507041329 15 26 0.0 3.2 0.00 0.00 0.00 67 1020.7
20260507040825 15 26 0.0 3.2 0.00 0.00 0.00 67 1020.6
20260507040318 15 26 0.0 3.2 0.00 0.00 0.00 67 1020.5
20260507035831 15 26 0.0 3.2 0.00 0.00 0.00 66 1020.5
20260507035346 16 11 0.0 3.2 0.00 0.00 0.00 66 1020.4
20260507034822 16 14 0.0 3.2 0.00 0.00 0.00 66 1020.3
20260507034318 16 13 0.0 1.6 0.00 0.00 0.00 66 1020.3
20260507033831 16 13 0.0 1.6 0.00 0.00 0.00 66 1020.2
20260507033344 16 13 0.0 3.2 0.00 0.00 0.00 65 1020.1
20260507032818 16 13 0.0 3.2 0.00 0.00 0.00 65 1020.1
20260507032332 16 41 0.0 1.6 0.00 0.00 0.00 65 1019.9
20260507031844 16 41 0.0 1.6 0.00 0.00 0.00 65 1019.9
20260507031317 16 41 0.0 1.6 0.00 0.00 0.00 65 1019.8
20260507030833 17 41 0.0 1.6 0.00 0.00 0.00 64 1019.8
20260507030346 17 41 0.0 0.0 0.00 0.00 0.00 65 1019.7
20260507025844 17 41 0.0 0.0 0.00 0.00 0.00 65 1019.7
20260507025315 17 41 0.0 1.6 0.00 0.00 0.00 65 1019.6
20260507024832 17 41 0.0 1.6 0.00 0.00 0.00 65 1019.6
20260507024325 17 41 0.0 1.6 0.00 0.00 0.00 64 1019.5
20260507023820 17 41 0.0 1.6 0.00 0.00 0.00 64 1019.5
20260507023333 17 41 0.0 0.0 0.00 0.00 0.00 63 1019.5
20260507022846 17 41 0.0 1.6 0.00 0.00 0.00 63 1019.5
20260507022318 17 41 0.0 3.2 0.00 0.00 0.00 63 1019.5
20260507021819 17 41 0.0 3.2 0.00 0.00 0.00 62 1019.5
20260507021352 18 41 0.0 1.6 0.00 0.00 0.00 61 1019.4
20260507020823 18 41 0.0 1.6 0.00 0.00 0.00 61 1019.4
20260507020315 18 41 0.0 1.6 0.00 0.00 0.00 61 1019.4
20260507015848 18 41 0.0 3.2 0.00 0.00 0.00 61 1019.4
20260507015319 18 41 0.0 3.2 0.00 0.00 0.00 60 1019.4
20260507014814 18 41 0.0 3.2 0.00 0.00 0.00 60 1019.5
20260507014349 18 41 0.0 3.2 0.00 0.00 0.00 60 1019.5
20260507013823 19 5 1.6 6.4 0.00 0.00 0.00 59 1019.5
20260507013316 19 27 0.0 1.6 0.00 0.00 0.00 59 1019.5
20260507012847 19 43 0.0 1.6 0.00 0.00 0.00 59 1019.5
20260507012323 20 43 0.0 1.6 0.00 0.00 0.00 59 1019.4
20260507011815 20 43 0.0 4.8 0.00 0.00 0.00 59 1019.4
20260507011329 20 5 0.0 6.4 0.00 0.00 0.00 59 1019.4
20260507010841 20 16 0.0 4.8 0.00 0.00 0.00 59 1019.4
20260507010333 20 36 0.0 4.8 0.00 0.00 0.00 59 1019.4
20260507005826 20 9 0.0 1.6 0.00 0.00 0.00 59 1019.4
20260507005319 20 9 0.0 4.8 0.00 0.00 0.00 59 1019.4
20260507004814 20 18 1.6 4.8 0.00 0.00 0.00 58 1019.4
20260507004334 20 16 0.0 6.4 0.00 0.00 0.00 59 1019.3
20260507003827 21 18 0.0 6.4 0.00 0.00 0.00 58 1019.3
20260507003342 21 14 0.0 3.2 0.00 0.00 0.00 58 1019.2
20260507002815 21 355 1.6 3.2 0.00 0.00 0.00 58 1019.3
20260507002328 21 23 0.0 4.8 0.00 0.00 0.00 58 1019.2
20260507001821 21 20 1.6 4.8 0.00 0.00 0.00 58 1019.2
20260507001334 21 40 0.0 1.6 0.00 0.00 0.00 57 1019.2
20260507000827 21 40 0.0 1.6 0.00 0.00 0.00 57 1019.2
20260507000343 21 40 0.0 1.6 0.00 0.00 0.00 57 1019.3
20260506235818 21 40 0.0 1.6 0.00 0.00 0.00 57 1019.2
20260506235331 21 40 0.0 1.6 0.00 0.00 0.00 57 1019.3
20260506234825 21 40 0.0 4.8 0.00 0.00 0.00 57 1019.3
20260506234318 21 40 1.6 4.8 0.00 0.00 0.00 56 1019.3
20260506233830 21 35 0.0 4.8 0.00 0.00 0.00 56 1019.2
20260506233344 21 13 0.0 0.0 0.00 0.00 0.00 56 1019.2
20260506232816 21 13 0.0 1.6 0.00 0.00 0.00 56 1019.2
20260506232328 21 13 0.0 1.6 0.00 0.00 0.00 55 1019.2
20260506231820 21 13 0.0 3.2 0.00 0.00 0.00 55 1019.3
20260506231316 22 13 0.0 3.2 0.00 0.00 0.00 56 1019.3
20260506230812 22 13 0.0 1.6 0.00 0.00 0.00 55 1019.3
20260506230328 22 13 0.0 3.2 0.00 0.00 0.00 55 1019.5
20260506225823 22 13 0.0 3.2 0.00 0.00 0.00 54 1019.5
20260506225335 21 15 0.0 0.0 0.00 0.00 0.00 56 1019.6
20260506224826 21 15 0.0 0.0 0.00 0.00 0.00 57 1019.6
20260506224339 21 15 0.0 0.0 0.00 0.00 0.00 56 1019.7
20260506223830 21 15 0.0 3.2 0.00 0.00 0.00 57 1019.7
20260506223324 21 15 0.0 3.2 0.00 0.00 0.00 58 1019.7
20260506222822 21 15 0.0 1.6 0.00 0.00 0.00 58 1019.8
20260506222333 21 15 0.0 1.6 0.00 0.00 0.00 59 1019.8
20260506221825 21 15 0.0 3.2 0.00 0.00 0.00 59 1019.8
20260506221318 21 15 0.0 3.2 0.00 0.00 0.00 60 1019.9
20260506220831 20 5 0.0 3.2 0.00 0.00 0.00 60 1019.9
20260506220344 20 5 0.0 3.2 0.00 0.00 0.00 60 1019.9
20260506215839 20 333 0.0 0.0 0.00 0.00 0.00 61 1020.0
20260506215333 20 333 0.0 3.2 0.00 0.00 0.00 62 1019.9
20260506214824 20 333 0.0 4.8 0.00 0.00 0.00 62 1019.8
20260506214320 20 11 0.0 4.8 0.00 0.00 0.00 61 1019.9
20260506213820 20 34 1.6 6.4 0.00 0.00 0.00 60 1019.8
20260506213332 19 34 0.0 6.4 0.00 0.00 0.00 63 1019.9
20260506212826 19 170 0.0 1.6 0.00 0.00 0.00 63 1020.1
20260506212338 19 170 0.0 3.2 0.00 0.00 0.00 63 1020.1
20260506211833 19 170 0.0 3.2 0.00 0.00 0.00 64 1020.1
20260506211326 19 229 0.0 1.6 0.00 0.00 0.00 64 1020.3
20260506210839 19 229 0.0 3.2 0.00 0.00 0.00 65 1020.3
20260506210330 19 228 0.0 3.2 0.00 0.00 0.00 65 1020.4
20260506205843 19 246 1.6 3.2 0.00 0.00 0.00 65 1020.4
20260506205321 19 246 1.6 3.2 0.00 0.00 0.00 65 1020.4
20260506204818 19 24 0.0 1.6 0.00 0.00 0.00 66 1020.3
20260506204350 18 24 0.0 1.6 0.00 0.00 0.00 66 1020.3
20260506203823 18 24 0.0 1.6 0.00 0.00 0.00 66 1020.3
20260506203315 18 24 0.0 1.6 0.00 0.00 0.00 67 1020.3
20260506202829 18 24 0.0 4.8 0.00 0.00 0.00 66 1020.3
20260506202322 18 24 0.0 6.4 0.00 0.00 0.00 67 1020.3
20260506201814 18 24 0.0 3.2 0.00 0.00 0.00 68 1020.3
20260506201329 18 335 0.0 1.6 0.00 0.00 0.00 68 1020.4
20260506200824 17 228 0.0 3.2 0.00 0.00 0.00 69 1020.4
20260506200319 17 228 1.6 3.2 0.00 0.00 0.00 70 1020.5
20260506195834 17 228 0.0 1.6 0.00 0.00 0.00 69 1020.5
20260506195328 17 252 0.0 1.6 0.00 0.00 0.00 69 1020.6
20260506194820 17 252 0.0 3.2 0.00 0.00 0.00 69 1020.7
20260506194332 17 252 0.0 3.2 0.00 0.00 0.00 69 1020.7
20260506193844 17 248 0.0 1.6 0.00 0.00 0.00 70 1020.8
20260506193315 17 248 0.0 1.6 0.00 0.00 0.00 69 1020.7
20260506192831 17 248 0.0 1.6 0.00 0.00 0.00 70 1020.7
20260506192343 17 251 0.0 1.6 0.00 0.00 0.00 70 1020.7
20260506191820 17 243 0.0 1.6 0.00 0.00 0.00 68 1020.7
20260506191335 17 243 0.0 3.2 0.00 0.00 0.00 69 1020.6
20260506190828 17 243 0.0 3.2 0.00 0.00 0.00 71 1020.6
20260506190320 17 272 0.0 3.2 0.00 0.00 0.00 70 1020.6
20260506185852 17 280 0.0 3.2 0.00 0.00 0.00 69 1020.6
20260506185326 17 211 0.0 3.2 0.00 0.00 0.00 70 1020.7
20260506184818 17 211 0.0 4.8 0.00 0.00 0.00 69 1020.6
20260506184333 17 211 1.6 4.8 0.00 0.00 0.00 70 1020.6
20260506183829 17 209 0.0 3.2 0.00 0.00 0.00 70 1020.5
20260506183325 17 209 0.0 1.6 0.00 0.00 0.00 71 1020.5
20260506182819 16 210 0.0 3.2 0.00 0.00 0.00 70 1020.5
20260506182331 16 209 0.0 3.2 0.00 0.00 0.00 71 1020.6
20260506181826 16 209 0.0 1.6 0.00 0.00 0.00 71 1020.7
20260506181322 16 277 0.0 6.4 0.00 0.00 0.00 72 1020.6
20260506180837 16 277 0.0 6.4 0.00 0.00 0.00 73 1020.6
20260506180330 16 308 0.0 3.2 0.00 0.00 0.00 73 1020.6
20260506175821 16 308 0.0 1.6 0.00 0.00 0.00 74 1020.6
20260506175319 16 308 0.0 1.6 0.00 0.00 0.00 73 1020.7
20260506174851 15 308 0.0 1.6 0.00 0.00 0.00 75 1020.7
20260506174323 15 265 0.0 1.6 0.00 0.00 0.00 75 1020.7
20260506173816 15 265 0.0 1.6 0.00 0.00 0.00 75 1020.6
20260506173332 15 265 0.0 1.6 0.00 0.00 0.00 76 1020.5
20260506172824 15 265 0.0 1.6 0.00 0.00 0.00 76 1020.4
20260506172319 15 267 0.0 1.6 0.00 0.00 0.00 76 1020.4
20260506171853 15 267 0.0 1.6 0.00 0.00 0.00 76 1020.4
20260506171324 15 267 0.0 3.2 0.00 0.00 0.00 76 1020.4
20260506170821 15 267 0.0 3.2 0.00 0.00 0.00 76 1020.3
20260506170334 15 267 0.0 3.2 0.00 0.00 0.00 77 1020.5
20260506165827 15 267 0.0 3.2 0.00 0.00 0.00 77 1020.4
20260506165320 15 267 0.0 0.0 0.00 0.00 0.00 76 1020.6
20260506164833 15 267 0.0 0.0 0.00 0.00 0.00 76 1020.5
20260506164326 15 267 0.0 0.0 0.00 0.00 0.00 76 1020.4
20260506163840 15 267 0.0 3.2 0.00 0.00 0.00 76 1020.5
20260506163354 15 267 0.0 3.2 0.00 0.00 0.00 76 1020.4
20260506162826 15 246 0.0 0.0 0.00 0.00 0.00 77 1020.5
20260506162323 15 246 0.0 0.0 0.00 0.00 0.00 77 1020.4
20260506161815 15 246 0.0 0.0 0.00 0.00 0.00 77 1020.2
20260506161331 14 246 0.0 0.0 0.00 0.00 0.00 77 1020.3
20260506160826 14 246 0.0 0.0 0.00 0.00 0.00 77 1020.2
20260506160319 14 246 0.0 0.0 0.00 0.00 0.00 77 1020.2
20260506155831 14 246 0.0 0.0 0.00 0.00 0.00 77 1019.9
20260506155326 14 246 0.0 0.0 0.00 0.00 0.00 78 1019.9
20260506154824 14 246 0.0 3.2 0.00 0.00 0.00 78 1020.0
20260506154316 14 247 0.0 3.2 0.00 0.00 0.00 78 1019.6
20260506153827 14 19 0.0 3.2 0.00 0.00 0.00 77 1019.4
20260506153323 14 19 1.6 3.2 0.00 0.00 0.00 78 1019.7
20260506152816 14 19 0.0 0.0 0.00 0.00 0.00 78 1020.1
20260506152329 14 19 0.0 0.0 0.00 0.00 0.00 77 1020.3
20260506151822 14 19 0.0 0.0 0.00 0.00 0.00 77 1020.3
20260506151334 14 19 0.0 0.0 0.00 0.00 0.00 77 1020.5
20260506150846 14 19 0.0 1.6 0.00 0.00 0.00 76 1020.5
20260506150321 14 19 0.0 0.0 0.00 0.00 0.00 77 1020.4
20260506145817 14 19 0.0 0.0 0.00 0.00 0.00 77 1020.3
20260506145329 14 19 0.0 0.0 0.00 0.00 0.00 77 1020.3
20260506144823 14 19 0.0 0.0 0.00 0.00 0.00 77 1020.3
20260506144314 14 19 0.0 0.0 0.00 0.00 0.00 77 1020.1
20260506143829 14 19 0.0 0.0 0.00 0.00 0.00 77 1020.2
20260506143323 14 19 0.0 3.2 0.00 0.00 0.00 77 1020.1
20260506142820 14 19 0.0 3.2 0.00 0.00 0.00 77 1019.9
20260506142319 14 19 0.0 4.8 0.00 0.00 0.00 77 1019.7
20260506141832 14 19 0.0 8.0 0.00 0.00 0.00 77 1019.7
20260506141348 14 36 1.6 8.0 0.00 0.00 0.00 77 1019.4
20260506140819 14 20 0.0 4.8 0.00 0.00 0.00 77 1019.4
20260506140353 14 30 0.0 4.8 0.00 0.00 0.00 77 1019.4
20260506135849 14 30 0.0 4.8 0.00 0.00 0.00 77 1019.4
20260506135320 14 30 0.0 4.8 0.00 0.00 0.00 77 1019.5
20260506134832 14 28 0.0 4.8 0.00 0.00 0.00 77 1019.5
20260506134327 14 22 0.0 3.2 0.00 0.00 0.00 77 1019.3
20260506133823 14 22 0.0 3.2 0.00 0.00 0.00 77 1019.4
20260506133317 14 22 0.0 0.0 0.00 0.00 0.00 77 1019.3
20260506132833 14 22 0.0 0.0 0.00 0.00 0.00 77 1019.2
20260506132325 14 22 0.0 0.0 0.00 0.00 0.00 77 1019.2
20260506131817 14 22 0.0 0.0 0.00 0.00 0.00 77 1019.1
20260506131330 14 22 0.0 0.0 0.00 0.00 0.00 77 1019.1
20260506130823 14 22 0.0 1.6 0.00 0.00 0.00 77 1019.0
20260506130335 14 22 0.0 1.6 0.00 0.00 0.00 77 1019.0
20260506125829 14 22 0.0 0.0 0.00 0.00 0.00 76 1019.0
20260506125326 14 22 0.0 0.0 0.00 0.00 0.00 76 1019.0
20260506124818 14 22 0.0 0.0 0.00 0.00 0.00 76 1018.9
20260506124334 14 22 0.0 0.0 0.00 0.00 0.00 76 1018.9
20260506123826 14 22 0.0 0.0 0.00 0.00 0.00 76 1018.8
20260506123320 14 22 0.0 0.0 0.00 0.00 0.00 76 1018.7
20260506122833 14 22 0.0 0.0 0.00 0.00 0.00 76 1018.9
20260506122324 14 22 0.0 0.0 0.00 0.00 0.00 76 1018.9
20260506121816 14 22 0.0 0.0 0.00 0.00 0.00 76 1018.9
20260506121332 15 22 0.0 0.0 0.00 0.00 0.00 76 1018.9
20260506120826 15 22 0.0 0.0 0.00 0.00 0.00 76 1018.8
20260506120319 15 22 0.0 0.0 0.00 0.00 0.00 76 1018.8
20260506115832 15 22 0.0 0.0 0.00 0.00 0.00 76 1018.7
20260506115324 15 22 0.0 0.0 0.00 0.00 0.00 76 1018.7
20260506114838 15 22 0.0 0.0 0.00 0.00 0.00 76 1018.6
20260506114328 15 22 0.0 0.0 0.00 0.00 0.00 75 1018.5
20260506113825 15 22 0.0 0.0 0.00 0.00 0.00 75 1018.5
20260506113322 15 22 0.0 0.0 0.00 0.00 0.00 75 1018.4
20260506112855 15 22 0.0 0.0 0.00 0.00 0.00 75 1018.4
20260506112325 15 22 0.0 0.0 0.00 0.00 0.00 75 1018.4
20260506111837 15 22 0.0 0.0 0.00 0.00 0.00 75 1018.3
20260506111329 15 22 0.0 1.6 0.00 0.00 0.00 74 1018.3
20260506110821 15 22 0.0 1.6 0.00 0.00 0.00 75 1018.3
20260506110317 15 22 0.0 0.0 0.00 0.00 0.00 75 1018.2
20260506105830 15 22 0.0 0.0 0.00 0.00 0.00 75 1018.1
20260506105344 15 22 0.0 0.0 0.00 0.00 0.00 75 1018.0
20260506104815 15 22 0.0 0.0 0.00 0.00 0.00 75 1017.9
20260506104331 15 22 0.0 0.0 0.00 0.00 0.00 75 1017.8
20260506103828 15 22 0.0 0.0 0.00 0.00 0.00 75 1017.8
20260506103324 15 22 0.0 0.0 0.00 0.00 0.00 75 1017.7
20260506102817 15 22 0.0 0.0 0.00 0.00 0.00 74 1017.7
20260506102333 15 22 0.0 0.0 0.00 0.00 0.00 74 1017.6
20260506101846 15 22 0.0 0.0 0.00 0.00 0.00 74 1017.5
20260506101317 15 22 0.0 0.0 0.00 0.00 0.00 75 1017.4
20260506100833 15 22 0.0 0.0 0.00 0.00 0.00 74 1017.4
20260506100326 15 22 0.0 0.0 0.00 0.00 0.00 74 1017.4
20260506095821 15 22 0.0 0.0 0.00 0.00 0.00 74 1017.4